This is the latest recevied weather packets stored in our database for station/object EA7RX-4. If no packets are shown the sender has not sent any weather packets the latest 10 day(s).
| Time | Temp. | Humidity | Pressure | Rain* | Wind** | Luminosity | Snow |
|---|---|---|---|---|---|---|---|
| 1787685603 | 23.33° C | 40% | 1013.9 hPa | 0 mm | - | 0 W/m² | - |
| 1787685003 | 23.33° C | 41% | 1013.9 hPa | 0 mm | - | 0 W/m² | - |
| 1787684403 | 23.89° C | 40% | 1013.9 hPa | 0 mm | - | 2 W/m² | - |
| 1787683803 | 23.89° C | 40% | 1013.9 hPa | 0 mm | - | 4 W/m² | - |
| 1787683203 | 23.89° C | 40% | 1013.8 hPa | 0 mm | - | 9 W/m² | - |
| 1787682603 | 24.44° C | 40% | 1014.1 hPa | 0 mm | - | 18 W/m² | - |
| 1787682003 | 24.44° C | 40% | 1014 hPa | 0 mm | - | 29 W/m² | - |
| 1787681403 | 24.44° C | 39% | 1013.8 hPa | 0 mm | - | 50 W/m² | - |
| 1787680803 | 24.44° C | 39% | 1013.7 hPa | 0 mm | - | 57 W/m² | - |
| 1787680203 | 25° C | 39% | 1013.8 hPa | 0 mm | - | 78 W/m² | - |
| 1787679603 | 25° C | 39% | 1014 hPa | 0 mm | - | 94 W/m² | - |
| 1787679003 | 25.56° C | 38% | 1013.9 hPa | 0 mm | - | 147 W/m² | - |
| 1787678403 | 25.56° C | 38% | 1014 hPa | 0 mm | - | 195 W/m² | - |
| 1787677803 | 25.56° C | 37% | 1013.7 hPa | 0 mm | - | 268 W/m² | - |
| 1787677203 | 25° C | 38% | 1013.8 hPa | 0 mm | - | 220 W/m² | - |
| 1787676603 | 25° C | 38% | 1014 hPa | 0 mm | - | 108 W/m² | - |
| 1787676003 | 25.56° C | 38% | 1014 hPa | 0 mm | - | 86 W/m² | - |
| 1787675403 | 25.56° C | 37% | 1014 hPa | 0 mm | - | 328 W/m² | - |
| 1787674803 | 26.11° C | 37% | 1014.1 hPa | 0 mm | - | 361 W/m² | - |
| 1787674203 | 26.11° C | 37% | 1014 hPa | 0 mm | - | 394 W/m² | - |
| 1787673603 | 25.56° C | 38% | 1013.9 hPa | 0 mm | - | 432 W/m² | - |
| 1787673003 | 25° C | 39% | 1014.1 hPa | 0 mm | - | 443 W/m² | - |
| 1787672403 | 25° C | 38% | 1014.2 hPa | 0 mm | - | 510 W/m² | - |
| 1787671803 | 25.56° C | 38% | 1014.3 hPa | 0 mm | - | 554 W/m² | - |
| 1787671203 | 25.56° C | 38% | 1014.4 hPa | 0 mm | - | 576 W/m² | - |
* Rain latest hour (hover to see other rain measurements)
** Current wind speed in m/s (hover to see current wind gust speed)